Showing default

RANGE A, 43773

Orbit data source: Space-Track

RANGE A, 43773 is a payload satellite owned by GaTech (US) in SSO that was launched on Mon, 03 Dec 2018 UTC via an FALCON 9 launch vehicle from the Air Force Western Test Range (AFWTR). Payload-class satellites include a variety of spacecraft equipped with specific instruments for various scientific and technological missions. These include communications satellites like Starlink; space stations such as the ISS; scientific satellites like the Hubble; Earth observation satellites from companies like Planet Labs, Umbra, and HawkEye 360; GPS; miniature CubeSats for education and research; and military/defense satellites.

Loading next visibility...
Identifier
43773, 2018-099R
Orbit
SSO
Country
Flag of USUS
Related business
Manufacturer
GaTech
Mission
Operational Amateur Technology
Bus & Motor
CUBESAT 1.5U, Unknown motor
Mass
2 kg wet, 2 kg dry
Launch date (UTC)
2018-12-03 (7 years ago)
Launch vehicle
FALCON 9
Launch site
Air Force Western Test Range (AFWTR)
Object type
Payload
Rocket body
Debris
Shape & HBR
Box + 2 Pan, 0.1 m
Radar Cross Section
0.025 m², Small (<0.1 m²)

Expand to show TLE details & history
Last TLE update: 7 hours ago

TLE from 7 hours ago
0 RANGE A
1 43773U 18099R   25308.59706608  .00005802  00000-0  35318-3 0  9998
2 43773  97.4311 352.7065 0012135  49.4365 310.7920 15.10729855378555
Epoch: 2025-11-04T14:19Z
TLE epoch observation values (Epoch: 2025-11-04T14:19:46.509Z)
Latitude
0.00005°
Longitude
93.6809°
Altitude
531.575 km
Speed
7.6 km/s
True Right ascension
23h 30m 49s
True Declination
0° 00' 00"
Sunlit
Object was in full shadow at epoch
Visualization orbit readout
Latitude
Unknown
Longitude
Unknown
Altitude
Unknown
Speed
Unknown
Apparent Right ascension
Unknown
Apparent Declination
Unknown
Sunlit
N/A
Visualization observer readout
Local Sidereal Time
16:57:57
Azimuth
Unknown
Elevation
Unknown
Doppler factor
Unknown
Orbital elements
Apogee altitude
539.336 km
Perigee altitude
522.568 km
Semi-major axis
6,909.089 km
Eccentricity
0.00121
Inclination
97.4311°
RAAN
352.7065°
Arg. of periapsis
49.4365°
True anomaly
310.68662°
Mean anomaly
310.792°
Eccentric anomaly
310.73932°
Mean motion
3.77931 °/min
Orbital period
95.26 mins
BSTAR
0.00035318
Loading maneuver chart data...
Computing Atmospheric mass density...
Loading historical data...
Loading historical data...
Loading historical data...
Loading historical data...
Loading historical data...
Loading historical data...
Loading historical data...

Documentation

Showing up to 5 results
|